STARLINK-1091, 44940

Orbit data source: Space-Track

STARLINK-1091, 44940 is a payload satellite owned by SpaceX/Seattle (US) in LEO that was launched on Tue, 07 Jan 2020 UTC via an FALCON 9 launch vehicle from the Air Force Eastern Test Range (AFETR). Payload-class satellites include a variety of spacecraft equipped with specific instruments for various scientific and technological missions. These include communications satellites like Starlink; space stations such as the ISS; scientific satellites like the Hubble; Earth observation satellites from companies like Planet Labs, Umbra, and HawkEye 360; GPS; miniature CubeSats for education and research; and military/defense satellites.

Not visible in the next 10 days
Identifier
44940, 2020-001AC
Orbit
LEO
Country
Flag of USUS
Related business
Manufacturer
SpaceX/Seattle
Mission
Partially operational Commercial Communications
Bus & Motor
STARLINK, Unknown motor
Mass
260 kg wet, ~248 kg dry
Launch date (UTC)
2020-01-07 (6 years ago)
Launch vehicle
FALCON 9
Launch site
Air Force Eastern Test Range (AFETR)
Object type
Payload
Rocket body
Debris
Shape & HBR
Box + 1 Pan, 10.1 m
Radar Cross Section
13.562 m², Large (>1 m²)

Expand to show TLE details & history
Last TLE update: 3 hours ago

TLE from 3 hours ago
0 STARLINK-1091
1 44940U 20001AC  25302.54947742  .00510379  12538-3  94780-3 0  9996
2 44940  53.0322 127.4705 0004560 281.5349  78.5168 16.00525679321306
Epoch: 2025-10-29T13:11Z
TLE epoch observation values (Epoch: 2025-10-29T13:11:14.849Z)
Latitude
-0.00003°
Longitude
-108.46241°
Altitude
273.272 km
Speed
7.745 km/s
True Right ascension
08h 29m 52s
True Declination
0° 00' 00"
Sunlit
Object was in daylight at epoch
Visualization orbit readout
Latitude
Unknown
Longitude
Unknown
Altitude
Unknown
Speed
Unknown
Apparent Right ascension
Unknown
Apparent Declination
Unknown
Sunlit
N/A
Visualization observer readout
Local Sidereal Time
11:43:23
Azimuth
Unknown
Elevation
Unknown
Doppler factor
Unknown
Orbital elements
Apogee altitude
276.28 km
Perigee altitude
270.214 km
Semi-major axis
6,651.384 km
Eccentricity
0.00046
Inclination
53.0322°
RAAN
127.4705°
Arg. of periapsis
281.5349°
True anomaly
78.56801°
Mean anomaly
78.5168°
Eccentric anomaly
78.54241°
Mean motion
4.00106 °/min
Orbital period
89.98 mins
BSTAR
0.0009478
Loading maneuver chart data...
Computing Atmospheric mass density...

Documentation

Showing up to 5 results
|